{"data":{"norad_id":68974,"epoch":"2026-09-19T19:43:17.553216Z","epoch_age_seconds":77917,"freshness":"FRESH","line1":"1 68974U 26099Z   26262.82173094  .00017398  00000+0  52483-3 0  9994","line2":"2 68974  53.1586  78.7208 0001302 111.0408 249.0734 15.34400883 21803","mean_motion":15.34400883,"eccentricity":0.0001302,"inclination_deg":53.1586,"raan_deg":78.7208,"arg_perigee_deg":111.0408,"mean_anomaly_deg":249.0734,"bstar":0.00052483,"rev_number":2180,"period_min":93.847704074868,"perigee_km":461.80993868871,"apogee_km":463.59129280385,"semimajor_km":6840.8376157463,"source":"CELESTRAK","updated_at":"2026-09-20T09:00:44.056391Z"}}